| time (UTC) | temp F | wind direction | speed MPH | gust MPH | rain 1hr in | rain 24hr in | rain mn in | humidity % | barometer mb |
| 20260903204519 | 98 | 165 | 6.0 | 12.0 | 0.00 | 0.00 | 0.00 | 47 | 1010.1 |
| 20260903203017 | 98 | 167 | 8.0 | 17.0 | 0.00 | 0.00 | 0.00 | 46 | 1010.3 |
| 20260903201516 | 98 | 169 | 8.0 | 16.0 | 0.00 | 0.00 | 0.00 | 46 | 1010.5 |
| 20260903200015 | 98 | 192 | 6.0 | 16.0 | 0.00 | 0.00 | 0.00 | 46 | 1010.3 |
| 20260903194513 | 98 | 207 | 5.0 | 12.0 | 0.00 | 0.00 | 0.00 | 49 | 1010.5 |
| 20260903193016 | 98 | 230 | 8.0 | 15.0 | 0.00 | 0.00 | 0.00 | 47 | 1010.7 |
| 20260903191507 | 98 | 259 | 7.0 | 16.0 | 0.00 | 0.00 | 0.00 | 48 | 1010.9 |
| 20260903190002 | 97 | 171 | 4.0 | 13.0 | 0.00 | 0.00 | 0.00 | 49 | 1011.1 |
| 20260903184607 | 97 | 215 | 6.0 | 15.0 | 0.00 | 0.00 | 0.00 | 49 | 1011.4 |
| 20260903183055 | 97 | 158 | 8.0 | 13.0 | 0.00 | 0.00 | 0.00 | 48 | 1011.5 |
| 20260903181555 | 96 | 182 | 6.0 | 16.0 | 0.00 | 0.00 | 0.00 | 50 | 1011.7 |
| 20260903180046 | 96 | 194 | 6.0 | 17.0 | 0.00 | 0.00 | 0.00 | 50 | 1011.9 |
| 20260903174544 | 95 | 126 | 6.0 | 12.0 | 0.00 | 0.00 | 0.00 | 51 | 1012.0 |
| 20260903173043 | 95 | 180 | 5.0 | 15.0 | 0.00 | 0.00 | 0.00 | 52 | 1012.1 |
| 20260903171546 | 95 | 173 | 5.0 | 11.0 | 0.00 | 0.00 | 0.00 | 52 | 1012.2 |
| 20260903170043 | 94 | 205 | 5.0 | 11.0 | 0.00 | 0.00 | 0.00 | 54 | 1012.3 |
| 20260903164535 | 93 | 183 | 6.0 | 11.0 | 0.00 | 0.00 | 0.00 | 54 | 1012.7 |
| 20260903163030 | 92 | 186 | 5.0 | 10.0 | 0.00 | 0.00 | 0.00 | 57 | 1012.9 |
| 20260903161528 | 90 | 214 | 6.0 | 14.0 | 0.00 | 0.00 | 0.00 | 59 | 1013.0 |
| 20260903160024 | 90 | 179 | 4.0 | 12.0 | 0.00 | 0.00 | 0.00 | 61 | 1013.1 |
| 20260903154521 | 89 | 173 | 5.0 | 13.0 | 0.00 | 0.00 | 0.00 | 63 | 1013.2 |
| 20260903153020 | 88 | 157 | 5.0 | 12.0 | 0.00 | 0.00 | 0.00 | 64 | 1013.2 |
| 20260903151520 | 87 | 150 | 4.0 | 11.0 | 0.00 | 0.00 | 0.00 | 65 | 1013.1 |
| 20260903150019 | 86 | 186 | 5.0 | 12.0 | 0.00 | 0.00 | 0.00 | 67 | 1013.2 |
| 20260903144520 | 86 | 194 | 5.0 | 14.0 | 0.00 | 0.00 | 0.00 | 67 | 1013.4 |
| 20260903143015 | 85 | 146 | 4.0 | 10.0 | 0.00 | 0.00 | 0.00 | 68 | 1013.4 |
| 20260903141515 | 84 | 235 | 6.0 | 12.0 | 0.00 | 0.00 | 0.00 | 69 | 1013.4 |
| 20260903140016 | 83 | 154 | 6.0 | 15.0 | 0.00 | 0.00 | 0.00 | 72 | 1013.5 |
| 20260903134512 | 82 | 151 | 4.0 | 8.0 | 0.00 | 0.00 | 0.00 | 74 | 1013.5 |
| 20260903133014 | 81 | 165 | 4.0 | 9.0 | 0.00 | 0.00 | 0.00 | 76 | 1013.6 |
| 20260903131511 | 79 | 167 | 4.0 | 8.0 | 0.00 | 0.00 | 0.00 | 78 | 1013.5 |
| 20260903130011 | 78 | 153 | 3.0 | 6.0 | 0.00 | 0.00 | 0.00 | 80 | 1013.5 |
| 20260903124508 | 77 | 142 | 2.0 | 5.0 | 0.00 | 0.00 | 0.00 | 80 | 1013.5 |
| 20260903123006 | 77 | 159 | 1.0 | 5.0 | 0.00 | 0.00 | 0.00 | 80 | 1013.3 |
| 20260903121514 | 77 | 162 | 0.0 | 2.0 | 0.00 | 0.00 | 0.00 | 80 | 1013.3 |
| 20260903120003 | 77 | 171 | 1.0 | 2.0 | 0.00 | 0.00 | 0.00 | 80 | 1013.2 |
| 20260903114607 | 77 | 175 | 1.0 | 4.0 | 0.00 | 0.00 | 0.00 | 79 | 1013.1 |
| 20260903113102 | 77 | 160 | 1.0 | 3.0 | 0.00 | 0.00 | 0.00 | 79 | 1012.8 |
| 20260903111558 | 78 | 183 | 2.0 | 5.0 | 0.00 | 0.00 | 0.00 | 78 | 1012.7 |
| 20260903110103 | 78 | 157 | 1.0 | 3.0 | 0.00 | 0.00 | 0.00 | 78 | 1012.8 |
| 20260903104555 | 78 | 148 | 1.0 | 3.0 | 0.00 | 0.00 | 0.00 | 77 | 1012.8 |
| 20260903103054 | 79 | 179 | 2.0 | 5.0 | 0.00 | 0.00 | 0.00 | 76 | 1012.7 |
| 20260903101552 | 79 | 182 | 1.0 | 3.0 | 0.00 | 0.00 | 0.00 | 75 | 1012.5 |
| 20260903100049 | 80 | 171 | 1.0 | 3.0 | 0.00 | 0.00 | 0.00 | 74 | 1012.5 |
| 20260903094547 | 80 | 163 | 0.0 | 2.0 | 0.00 | 0.00 | 0.00 | 73 | 1012.6 |
| 20260903093045 | 81 | 165 | 0.0 | 3.0 | 0.00 | 0.00 | 0.00 | 72 | 1012.7 |
| 20260903091543 | 81 | 148 | 1.0 | 2.0 | 0.00 | 0.00 | 0.00 | 71 | 1012.7 |
| 20260903090047 | 81 | 171 | 2.0 | 4.0 | 0.00 | 0.00 | 0.00 | 71 | 1012.6 |
| 20260903084540 | 82 | 171 | 2.0 | 4.0 | 0.00 | 0.00 | 0.00 | 70 | 1012.5 |
| 20260903083044 | 82 | 169 | 1.0 | 3.0 | 0.00 | 0.00 | 0.00 | 69 | 1012.4 |
| 20260903081537 | 83 | 172 | 0.0 | 5.0 | 0.00 | 0.00 | 0.00 | 68 | 1012.3 |
| 20260903080133 | 83 | 179 | 0.0 | 3.0 | 0.00 | 0.00 | 0.00 | 67 | 1012.2 |
| 20260903074531 | 84 | 184 | 1.0 | 5.0 | 0.00 | 0.00 | 0.00 | 66 | 1012.0 |
| 20260903073029 | 84 | 207 | 2.0 | 4.0 | 0.00 | 0.00 | 0.00 | 65 | 1012.0 |
| 20260903071530 | 85 | 156 | 2.0 | 7.0 | 0.00 | 0.00 | 0.00 | 64 | 1012.2 |
| 20260903070025 | 85 | 196 | 2.0 | 6.0 | 0.00 | 0.00 | 0.00 | 63 | 1012.1 |
| 20260903064523 | 86 | 199 | 1.0 | 8.0 | 0.00 | 0.00 | 0.00 | 62 | 1012.1 |
| 20260903063021 | 86 | 175 | 3.0 | 7.0 | 0.00 | 0.00 | 0.00 | 61 | 1012.0 |
| 20260903061530 | 87 | 155 | 3.0 | 9.0 | 0.00 | 0.00 | 0.00 | 60 | 1011.9 |
| 20260903060015 | 87 | 241 | 3.0 | 10.0 | 0.00 | 0.00 | 0.00 | 58 | 1011.8 |
| 20260903054518 | 88 | 170 | 3.0 | 7.0 | 0.00 | 0.00 | 0.00 | 57 | 1011.9 |
| 20260903053019 | 88 | 185 | 2.0 | 7.0 | 0.00 | 0.00 | 0.00 | 56 | 1011.9 |
| 20260903051509 | 89 | 218 | 3.0 | 7.0 | 0.00 | 0.00 | 0.00 | 55 | 1011.8 |
| 20260903050005 | 89 | 205 | 3.0 | 8.0 | 0.00 | 0.00 | 0.00 | 54 | 1011.7 |
| 20260903044504 | 89 | 264 | 3.0 | 9.0 | 0.00 | 0.00 | 0.00 | 54 | 1011.5 |
| 20260903043004 | 89 | 231 | 2.0 | 7.0 | 0.00 | 0.00 | 0.00 | 54 | 1011.5 |
| 20260903041503 | 88 | 185 | 2.0 | 8.0 | 0.00 | 0.00 | 0.00 | 55 | 1011.5 |
| 20260903040002 | 88 | 172 | 3.0 | 6.0 | 0.00 | 0.00 | 0.00 | 55 | 1011.4 |
| 20260903034502 | 88 | 180 | 3.0 | 7.0 | 0.00 | 0.00 | 0.00 | 56 | 1011.4 |
| 20260903033003 | 87 | 171 | 1.0 | 3.0 | 0.00 | 0.00 | 0.00 | 57 | 1011.4 |
| 20260903031610 | 87 | 128 | 0.0 | 0.0 | 0.00 | 0.00 | 0.00 | 56 | 1011.3 |
| 20260903030002 | 88 | 134 | 0.0 | 2.0 | 0.00 | 0.00 | 0.00 | 55 | 1011.3 |
| 20260903024559 | 88 | 140 | 0.0 | 2.0 | 0.00 | 0.00 | 0.00 | 55 | 1011.2 |
| 20260903023059 | 89 | 129 | 0.0 | 2.0 | 0.00 | 0.00 | 0.00 | 54 | 1011.1 |
| 20260903021559 | 89 | 157 | 0.0 | 2.0 | 0.00 | 0.00 | 0.00 | 53 | 1011.0 |
| 20260903020058 | 90 | 157 | 0.0 | 1.0 | 0.00 | 0.00 | 0.00 | 52 | 1010.8 |
| 20260903014614 | 91 | 157 | 0.0 | 1.0 | 0.00 | 0.00 | 0.00 | 51 | 1010.7 |
| 20260903013103 | 92 | 157 | 0.0 | 1.0 | 0.00 | 0.00 | 0.00 | 49 | 1010.5 |
| 20260903011618 | 94 | 157 | 0.0 | 2.0 | 0.00 | 0.00 | 0.00 | 47 | 1010.3 |
| 20260903010109 | 95 | 136 | 0.0 | 3.0 | 0.00 | 0.00 | 0.00 | 46 | 1010.2 |
| 20260903004601 | 96 | 180 | 0.0 | 3.0 | 0.00 | 0.00 | 0.00 | 44 | 1010.3 |
| 20260903003108 | 97 | 157 | 2.0 | 7.0 | 0.00 | 0.00 | 0.00 | 43 | 1010.3 |
| 20260903001601 | 98 | 161 | 1.0 | 3.0 | 0.00 | 0.00 | 0.00 | 41 | 1010.3 |
| 20260903000054 | 99 | 188 | 2.0 | 6.0 | 0.00 | 0.00 | 0.00 | 40 | 1010.3 |
| 20260902234600 | 99 | 187 | 4.0 | 7.0 | 0.00 | 0.00 | 0.00 | 39 | 1010.3 |
| 20260902233053 | 100 | 178 | 5.0 | 10.0 | 0.00 | 0.00 | 0.00 | 39 | 1010.3 |
| 20260902231552 | 100 | 169 | 4.0 | 9.0 | 0.00 | 0.00 | 0.00 | 39 | 1010.3 |
| 20260902230058 | 101 | 173 | 4.0 | 10.0 | 0.00 | 0.00 | 0.00 | 39 | 1010.4 |
| 20260902224555 | 101 | 173 | 5.0 | 9.0 | 0.00 | 0.00 | 0.00 | 39 | 1010.5 |
| 20260902223049 | 102 | 81 | 2.0 | 12.0 | 0.00 | 0.00 | 0.00 | 39 | 1010.6 |
| 20260902221548 | 101 | 192 | 5.0 | 11.0 | 0.00 | 0.00 | 0.00 | 39 | 1010.6 |
| 20260902220049 | 102 | 198 | 4.0 | 10.0 | 0.00 | 0.00 | 0.00 | 38 | 1010.8 |
| 20260902214549 | 102 | 164 | 4.0 | 9.0 | 0.00 | 0.00 | 0.00 | 39 | 1010.8 |
| 20260902213045 | 103 | 180 | 4.0 | 9.0 | 0.00 | 0.00 | 0.00 | 38 | 1010.8 |
| 20260902211545 | 102 | 207 | 2.0 | 13.0 | 0.00 | 0.00 | 0.00 | 39 | 1011.3 |
| 20260902210042 | 102 | 223 | 3.0 | 12.0 | 0.00 | 0.00 | 0.00 | 38 | 1011.4 |